Regional Weather Roundup
Issued by NWS Bismarck, ND

Home | Current Version | Previous Version | Text Only | Print | Product List | Glossary On
Versions: 1 2 3 4 5 6 7 8 9 10 11 12 13 14 15 16 17 18 19 20 21 22 23 24 25 26 27 28 29 30 31 32 33 34 35 36 37 38 39 40 41 42 43 44 45 46 47 48 49 50
000
ASUS43 KBIS 302102
RWRBIS

NWR BROADCAST TEXT
NATIONAL WEATHER SERVICE BISMARCK ND
400 PM CDT SAT APR 30 2016

NOTE: "FAIR" INDICATES FEW OR NO CLOUDS BELOW 12,000 FEET WITH NO
SIGNIFICANT WEATHER AND/OR OBSTRUCTIONS TO VISIBILITY.


CITY           SKY/WX    TMP DP  RH WIND       PRES   REMARKS
WILLISTON      SUNNY     63  29  27 E15       30.25S
MINOT          SUNNY     66  27  23 E13G26    30.23F
MINOT AFB      MOSUNNY   63  29  28 E17       30.23S
BISMARCK       SUNNY     59  29  31 E20G36    30.19S
DICKINSON      PTSUNNY   56  30  37 E15       30.18F
GARRISON         N/A     59  29  31 NE10G23   30.22F
HETTINGER ARPT PTSUNNY   56  31  38 E17       30.18S
JAMESTOWN      CLOUDY    61  28  28 NE22G30   30.15F
CARRINGTON     FAIR      59  28  31 NE20G26   30.21F
HAZEN          FAIR      59  27  29 E15G26    30.23S
OAKES            N/A    N/A N/A N/A MISG        N/A
STANLEY        FAIR      59  27  29 E7G21     30.27S
$$

CITY           SKY/WX    TMP DP  RH WIND       PRES   REMARKS
GRAND FORKS    MOSUNNY   61  27  27 E18G33    30.20F
GRAND FORKS AF SUNNY     61  26  25 E22G32    30.20F
DEVILS LAKE    SUNNY     59  29  31 NE14G29   30.23F
FARGO          CLOUDY    64  24  21 NE18      30.13F
CAVALIER       FAIR      59  32  36 NE14G25   30.24F
GRAFTON        FAIR      61  32  33 NE14G23   30.24S
GWINNER        FAIR      61  32  33 NE18G26   30.10F
LANGDON        FAIR      61  30  31 NE17G28   30.25F
$$

CITY           SKY/WX    TMP DP  RH WIND       PRES   REMARKS
ABERDEEN       CLOUDY    58  35  42 E22G30    30.07S
MOBRIDGE       MOSUNNY   60  32  34 NE24G31   30.08S
BUFFALO          N/A     54  30  40 E17G26    30.10R
RAPID CITY     CLOUDY    48  34  58 N16       30.09S
GLASGOW        SUNNY     62  29  28 E15       30.25S
SIDNEY         SUNNY     63  28  27 E18G25    30.25R
WOLF POINT     MOSUNNY   64  30  27 E12       30.25S
GLENDIVE       MOSUNNY   61  28  29 NE10G16   30.24S
MILES CITY     MOSUNNY   58  29  33 E8        30.21R
BAKER          CLOUDY    58  31  35 E14G22    30.20S
$$

CITY           SKY/WX    TMP DP  RH WIND       PRES   REMARKS
BILLINGS       CLOUDY    52  35  52 NE8       30.21R
GREAT FALLS    CLOUDY    51  35  54 E10       30.23R
$$





USA.gov is the U.S. government's official web portal to all federal, state and local government web resources and services.